[[{"header":{"parameterUnit":"m.s-1","parameterCategory":1,"la1":30.2992,"la2":30.254,"lo1":-89.0895,"lo2":-89.0443,"dy":0.0025,"dx":0.0025,"nx":19,"ny":19,"refTime":"2026-05-18T21:00:00:Z","depth":0,"parameterNumber":2,"parameterNumberName":"U-component_of_WINDS"},"data":[0,0,0,-1.2468,-1.2467,-1.2436,-1.2435,-1.241,-1.241,0,0,0,0,0,0,0,0,0,0,0,-1.2487,-1.2487,-1.2468,-1.2467,-1.2436,-1.2435,-1.241,-1.241,0,0,0,0,0,0,0,0,0,0,0,-1.2487,-1.2487,-1.2487,-1.2467,-1.2436,-1.2435,-1.2411,-1.2429,0,0,0,0,0,0,0,0,0,0,-1.2457,-1.2484,-1.2487,-1.2487,-1.2467,-1.2436,-1.2435,-1.2429,-1.2428,-1.2432,0,-1.2438,0,-1.2424,-1.241,-1.241,0,0,0,-1.246,-1.2486,-1.2468,-1.2487,-1.2467,-1.2436,-1.2448,-1.2428,-1.2426,-1.243,-1.2438,-1.2437,-1.2424,-1.241,-1.241,-1.2461,-1.2462,0,0,-1.2461,-1.2486,-1.247,-1.2468,-1.2474,-1.2449,-1.2447,-1.2427,-1.2437,-1.2438,-1.2436,-1.2423,-1.241,-1.241,-1.2461,-1.2461,0,0,0,-1.2472,-1.2488,-1.2471,-1.2469,-1.2462,-1.2448,-1.2446,-1.2438,-1.243,-1.2435,-1.2423,-1.241,-1.241,-1.246,-1.2461,-1.2515,0,0,0,-1.2472,-1.2494,-1.2472,-1.2487,-1.2463,-1.245,-1.2458,-1.2432,-1.2429,-1.2423,-1.241,-1.2409,-1.2459,-1.246,-1.2512,-1.2537,0,0,0,-1.2486,-1.2495,-1.2494,-1.2488,-1.2476,-1.245,-1.2441,-1.2431,-1.2422,-1.241,-1.2409,-1.2459,-1.246,-1.251,-1.2532,-1.2558,0,0,0,-1.2507,-1.2542,-1.2495,-1.253,-1.2476,-1.2484,-1.244,-1.2445,-1.2441,-1.241,-1.2459,-1.2461,-1.2509,-1.2529,-1.2555,-1.2585,-1.2599,0,0,-1.2565,-1.255,-1.2568,-1.2525,-1.2548,-1.2487,-1.2517,-1.2489,-1.2465,-1.2464,-1.2465,-1.2513,-1.2532,-1.2558,-1.2671,-1.2683,0,0,0,-1.2595,-1.2608,-1.2609,-1.2607,-1.2588,-1.2573,-1.2538,-1.2528,-1.2527,-1.247,-1.2529,-1.2539,-1.2553,-1.2566,-1.2576,-1.2587,-1.2468,-1.2468,-1.2467,-1.2711,-1.268,-1.2708,-1.2673,-1.2672,-1.2637,-1.2633,-1.2614,-1.2581,-1.2596,-1.2595,-1.2668,-1.2684,-1.2691,-1.2703,-1.2608,-1.2608,-1.2608,-1.2608,-1.2793,-1.2807,-1.2765,-1.2777,-1.2744,-1.2754,-1.2722,-1.2699,-1.2703,-1.2665,-1.2676,-1.2637,-1.2705,-1.2714,-1.2612,-1.2611,-1.2611,-1.261,-1.261,-1.2866,-1.2867,-1.2856,-1.2851,-1.2851,-1.2815,-1.2822,-1.279,-1.2761,-1.2772,-1.2768,-1.2767,-1.2763,-1.2772,-1.2773,-1.2773,-1.2773,-1.2773,-1.2773,-1.2946,-1.2931,-1.2941,-1.2925,-1.2921,-1.2911,-1.2878,-1.2873,-1.2859,-1.2836,-1.2836,-1.2802,-1.2718,-1.2697,-1.2777,-1.2777,-1.2776,-1.2776,-1.2775,-1.304,-1.3015,-1.303,-1.3026,-1.3006,-1.3009,-1.297,-1.2962,-1.2953,-1.2958,-1.2923,-1.2866,-1.2847,-1.2839,-1.2822,-1.2929,-1.2929,-1.2929,-1.2929,-1.3102,-1.3091,-1.31,-1.3096,-1.3088,-1.3055,-1.3075,-1.305,-1.302,-1.3013,-1.2993,-1.2968,-1.2961,-1.2947,-1.2936,-1.292,-1.3049,-1.3049,-1.305,-1.3159,-1.3145,-1.3167,-1.3139,-1.3121,-1.3107,-1.3124,-1.3122,-1.3082,-1.3054,-1.3007,-1.3002,-1.296,-1.2949,-1.2918,-1.2903,-1.2872,0,0]},{"header":{"parameterUnit":"m.s-1","parameterCategory":1,"la1":30.2992,"la2":30.254,"lo1":-89.0895,"lo2":-89.0443,"dy":0.0025,"dx":0.0025,"nx":19,"ny":19,"refTime":"2026-05-18T21:00:00:Z","depth":0,"parameterNumber":3,"parameterNumberName":"V-component_of_WINDS"},"data":[0,0,0,1.1575,1.1573,1.1519,1.1519,1.1435,1.1434,0,0,0,0,0,0,0,0,0,0,0,1.1584,1.1583,1.1575,1.1573,1.1519,1.1519,1.1435,1.1434,0,0,0,0,0,0,0,0,0,0,0,1.1584,1.1583,1.1582,1.1573,1.1519,1.1519,1.1435,1.1481,0,0,0,0,0,0,0,0,0,0,1.1536,1.1538,1.1583,1.1582,1.1573,1.1519,1.1519,1.1483,1.1478,1.1454,0,1.1432,0,1.1432,1.1428,1.1427,0,0,0,1.1578,1.1542,1.1534,1.1582,1.1572,1.1519,1.1545,1.1481,1.1475,1.1447,1.1431,1.1428,1.143,1.1427,1.1427,1.1275,1.1274,0,0,1.1581,1.1569,1.1538,1.153,1.1539,1.1546,1.1543,1.1477,1.1458,1.1431,1.1426,1.1429,1.1426,1.1426,1.1276,1.1275,0,0,0,1.1587,1.1571,1.1565,1.1533,1.1524,1.1545,1.1541,1.1461,1.146,1.1426,1.1428,1.1426,1.1425,1.1277,1.1276,1.1218,0,0,0,1.1589,1.1575,1.1566,1.1559,1.1525,1.1492,1.1526,1.1465,1.1458,1.1428,1.1426,1.1424,1.1278,1.1277,1.1222,1.1192,0,0,0,1.159,1.1575,1.1565,1.1558,1.1535,1.1494,1.1489,1.1464,1.1459,1.1427,1.1423,1.1279,1.1277,1.1226,1.1198,1.1149,0,0,0,1.1587,1.1513,1.1563,1.1482,1.1535,1.146,1.149,1.1434,1.14,1.1425,1.1278,1.1276,1.1227,1.1201,1.1152,1.1105,1.1084,0,0,1.1487,1.1501,1.1454,1.1498,1.141,1.1469,1.1373,1.1352,1.1359,1.1302,1.1299,1.1221,1.1198,1.115,1.0975,1.0959,0,0,0,1.1418,1.1384,1.1364,1.1332,1.1316,1.1299,1.1295,1.1288,1.1241,1.1328,1.1191,1.1178,1.115,1.1127,1.1113,1.1089,1.1266,1.1266,1.1266,1.1259,1.1274,1.1197,1.1206,1.1175,1.1172,1.1148,1.1137,1.1159,1.1127,1.111,1.1002,1.0975,1.0965,1.094,1.1087,1.1087,1.1087,1.1086,1.1113,1.1067,1.1102,1.104,1.1056,1.1003,1.0998,1.1017,1.0969,1.1016,1.0992,1.104,1.0947,1.0925,1.1082,1.1083,1.1083,1.1084,1.1084,1.1009,1.0989,1.0983,1.094,1.0905,1.0916,1.087,1.0886,1.0901,1.0877,1.086,1.0861,1.0863,1.0868,1.0868,1.0868,1.0867,1.0867,1.0867,1.0902,1.0897,1.0857,1.0836,1.0818,1.0797,1.0795,1.0778,1.0762,1.0777,1.0777,1.0803,1.0936,1.0968,1.0861,1.0862,1.0863,1.0863,1.0864,1.0746,1.0784,1.0722,1.0705,1.0681,1.0645,1.0668,1.0631,1.062,1.0596,1.0628,1.0724,1.0738,1.0749,1.0776,1.0626,1.0626,1.0626,1.0626,1.0656,1.0667,1.0607,1.0579,1.0552,1.0567,1.0496,1.0494,1.0498,1.0491,1.0516,1.0553,1.0564,1.0572,1.0587,1.0612,1.0423,1.0423,1.0423,1.0561,1.0569,1.0505,1.0512,1.0496,1.0481,1.0414,1.0378,1.0391,1.0415,1.0486,1.0495,1.0555,1.0575,1.0597,1.0621,1.0667,0,0]}]]